Regional Weather Roundup
Issued by NWS State College, PA

Home | Current Version | Previous Version | Graphics & Text | Print | Product List | Glossary On
Versions: 1 2 3 4 5 6 7 8 9 10 11 12 13 14 15 16 17 18 19 20 21 22 23 24 25 26 27 28 29 30 31 32 33 34 35 36 37 38 39 40 41 42 43 44 45 46 47 48 49 50
000
ASUS41 KCTP 251503
RWRCTP

REGIONAL WEATHER ROUNDUP
NATIONAL WEATHER SERVICE STATE COLLEGE PA
1100 AM EDT FRI MAY 25 2018

Note: "fair" indicates few or no clouds below 12,000 feet with no
significant weather and/or obstructions to visibility.

* = STATION THAT DOES NOT REPORT PRECIPITATION /E.G. RAIN...SNOW...ETC/
    THUNDER OR FOG.

PAZ002>004-007>009-013>016-020>023-029>032-251600-
WESTERN PENNSYLVANIA

CITY           SKY/WX    TMP DP  RH WIND       PRES   REMARKS
ERIE           FAIR      80  51  36 W10       29.99F
MEADVILLE      FAIR      75  54  47 SW7       30.03F
FRANKLIN*      FAIR      76  51  41 W7        30.05F
NEW CASTLE     FAIR      76  59  55 CALM      30.04F
BEAVER COUNTY  SUNNY     75  61  60 CALM      30.04F
BUTLER*        FAIR      75  60  59 S7        30.04F
PITTSBURGH INT FAIR      77  62  59 SW9       30.03F
PITTSBURGH     FAIR      76  64  66 SW8       30.03F
INDIANA*       SUNNY     75  63  64 SW9       30.09F
LATROBE        SUNNY     75  63  64 SW12      30.06F
WASHINGTON CO* FAIR      77  64  64 SW5       30.06F
$$

PAZ004>006-010>012-017>019-024>028-033>037-041-042-045-046-049>053-251600-
CENTRAL PENNSYLVANIA

CITY           SKY/WX    TMP DP  RH WIND       PRES   REMARKS
BRADFORD       FAIR      73  46  38 SW9       30.05F
DUBOIS         FAIR      73  56  54 W5        30.04F
CLEARFIELD     FAIR      74  56  53 S7        30.04F
JOHNSTOWN      FAIR      73  60  63 SW8       30.09F
ALTOONA        FAIR      78  59  51 VRB6      30.06F
STATE COLLEGE  SUNNY     75  57  53 S6        30.05F
WILLIAMSPORT   FAIR      72  54  53 CALM      30.00F
SELINSGROVE    FAIR      75  57  53 CALM      30.02F
FT INDIANTOWN  FAIR      76  57  51 SW8       30.03F
CAPITAL CITY   FAIR      79  58  48 VRB5      30.03F
HARRISBURG     FAIR      75  57  53 CALM      30.02F
YORK           FAIR      79  58  48 W9        30.04F
$$

PAZ038>040-043-044-047-048-054-055-060>062-067>071-251600-
EASTERN PENNSYLVANIA

CITY           SKY/WX    TMP DP  RH WIND       PRES   REMARKS
SCRANTON       FAIR      76  53  44 SW7       30.01F
MOUNT POCONO   FAIR      75  48  38 W13       30.05F
ALLENTOWN      FAIR      79  56  45 SW7       30.02F
QUAKERTOWN*    SUNNY     79  57  47 SW6       30.04F
READING        FAIR      78  59  51 SW9       30.02F
LANCASTER      FAIR      79  59  50 W10       30.03F
COATESVILLE    FAIR      77  59  53 VRB7      30.07S
POTTSTOWN      FAIR      78  55  44 SW8       30.05F
BLUE BELL      FAIR      79  59  50 SW8       30.05F
DOYLESTOWN     FAIR      79  55  43 VRB6      30.02F
WILLOW GROVE   NOT AVBL
NORTH PHILA    FAIR      81  59  47 SW9       30.04F
PHILADELPHIA   FAIR      77  60  55 SW12      30.04F
$$



USA.gov is the U.S. government's official web portal to all federal, state and local government web resources and services.